User: anonymous   Login
Location: Alfortville
(48.8058°N, 2.4204°E)
Time: 15:10:56
(UTC+00:00)
Language:

Cosmos 1980 Rocket - Orbit

View from above orbital plane
View from above orbital plane
View from above satellite
View from above satellite

Ground track
Ground track

The orbit data is extracted from the following two-line orbital elements,

1 19650U 88102B   22022.14443148 -.00000057  00000-0 -47507-5 0  9999
2 19650  70.9996  82.5133 0013184 154.6113 205.5660 14.15814550713776
Epoch (UTC): 22 January 2022 03:27:58
Eccentricity: 0.0013184
inclination: 70.9996°
perigee height: 830 km
apogee height: 849 km
right ascension of ascending node: 82.5133°
argument of perigee: 154.6113°
revolutions per day: 14.15814550
mean anomaly at epoch: 205.5660°
orbit number at epoch: 71377

The dashed part of the orbit path shows where the satellite is in the earth's shadow,  

DLR